Weather History for KDYT - May, 2013

Change the Weather History Date:

Monday, May 13, 2013

  Actual Average Record
Temperature  
Mean Temperature 40 °F -  
Max Temperature 42 °F 59 °F 105 °F (1997)
Min Temperature 37 °F 38 °F 23 °F (1953)
Degree Days  
Heating Degree Days 26    
Moisture  
Dew Point 28 °F    
Average Humidity 67    
Maximum Humidity 87    
Minimum Humidity 39    
Precipitation  
Precipitation 0.00 in - - ()
Sea Level Pressure  
Sea Level Pressure 29.98 in    
Wind  
Wind Speed 4 mph (NE)    
Max Wind Speed 18 mph    
Max Gust Speed -    
Visibility 10 miles    
Events Rain    
Averages and records for this station are not official NWS values.
T = Trace of Precipitation, MM = Missing Value Source: NWS Daily Summary

Daily Weather History Graph

Daily Weather History Graph

Search for Another Location

Airport or City:

Trip Planner

Search our weather history database for the weather conditions in past years. The results will help you decide how hot, cold, wet, or windy it might be!

Date:

Astronomy

May. 13, 2013 Rise Set
Actual Time 5:35 AM CDT 8:33 PM CDT
Civil Twilight 5:00 AM CDT 9:09 PM CDT
Nautical Twilight 4:14 AM CDT 9:55 PM CDT
Astronomical Twilight 3:20 AM CDT 10:50 PM CDT
Moon 8:20 AM CDT (5/13) 11:43 PM CDT (5/13)
Length of Visible Light 16h 09m
Length of Day
14h 58m
Waxing Crescent, 12% of the Moon is Illuminated
May 13
Waxing Crescent
May 17
First Quarter
May 24
Full
May 31
Last Quarter
Jun 8
New

Hourly Weather History & Observations

Time (CDT) Temp. Windchill Dew Point Humidity Pressure Visibility Wind Dir Wind Speed Gust Speed Precip Events Conditions
12:13 AM 37.4 °F 34.9 °F 30.2 °F 75% 30.14 in 10.0 mi NNE 3.5 mph - N/A   Clear
12:33 AM 39.2 °F - 28.4 °F 65% 30.14 in 10.0 mi Calm Calm - N/A   Clear
12:54 AM 37.4 °F - 24.8 °F 60% 30.14 in 10.0 mi Calm Calm - N/A   Clear
1:13 AM 39.2 °F - 19.4 °F 45% 30.13 in 10.0 mi Calm Calm - N/A   Clear
1:33 AM 39.2 °F - 23.0 °F 52% 30.13 in 10.0 mi Calm Calm - N/A   Clear
1:54 AM 39.2 °F 37.0 °F 19.4 °F 45% 30.13 in 10.0 mi South 3.5 mph - N/A   Clear
2:13 AM 39.2 °F 37.0 °F 19.4 °F 45% 30.13 in 10.0 mi SW 3.5 mph - N/A   Clear
2:33 AM 37.4 °F - 19.4 °F 48% 30.13 in 10.0 mi Calm Calm - N/A   Clear
2:54 AM 37.4 °F - 19.4 °F 48% 30.12 in 10.0 mi Calm Calm - N/A   Clear
3:13 AM 37.4 °F - 19.4 °F 48% 30.12 in 10.0 mi Calm Calm - N/A   Clear
3:33 AM 37.4 °F 34.9 °F 19.4 °F 48% 30.12 in 10.0 mi WSW 3.5 mph - N/A   Clear
3:54 AM 37.4 °F 34.9 °F 19.4 °F 48% 30.12 in 10.0 mi West 3.5 mph - N/A   Clear
4:13 AM 37.4 °F 33.8 °F 21.2 °F 52% 30.12 in 10.0 mi WSW 4.6 mph - N/A   Clear
4:33 AM 37.4 °F 33.8 °F 19.4 °F 48% 30.12 in 10.0 mi WSW 4.6 mph - N/A   Clear
4:54 AM 37.4 °F 32.8 °F 21.2 °F 52% 30.12 in 10.0 mi WSW 5.8 mph - N/A   Clear
5:13 AM 37.4 °F 33.8 °F 21.2 °F 52% 30.12 in 10.0 mi WSW 4.6 mph - N/A   Clear
5:33 AM 37.4 °F 33.8 °F 21.2 °F 52% 30.12 in 10.0 mi WSW 4.6 mph - N/A   Clear
5:54 AM 37.4 °F - 21.2 °F 52% 30.12 in 10.0 mi Calm Calm - N/A   Clear
6:13 AM 37.4 °F 34.9 °F 21.2 °F 52% 30.12 in 10.0 mi WSW 3.5 mph - N/A   Clear
6:53 AM 37.4 °F - 21.2 °F 52% 30.13 in 10.0 mi Calm Calm - N/A   Clear
7:14 AM 39.2 °F - 19.4 °F 45% 30.13 in 10.0 mi Calm Calm - N/A   Clear
7:33 AM 39.2 °F - 19.4 °F 45% 30.13 in 10.0 mi Calm Calm - N/A   Clear
7:53 AM 42.8 °F - 19.4 °F 39% 30.13 in 10.0 mi Calm Calm - N/A   Clear
8:14 AM 41.0 °F 39.0 °F 26.6 °F 57% 30.13 in 10.0 mi ENE 3.5 mph - N/A   Clear
8:33 AM 41.0 °F 39.0 °F 28.4 °F 61% 30.12 in 10.0 mi NE 3.5 mph - N/A   Clear
8:53 AM 41.0 °F 38.0 °F 28.4 °F 61% 30.11 in 10.0 mi NE 4.6 mph - N/A   Clear
9:14 AM 41.0 °F 35.8 °F 30.2 °F 65% 30.10 in 10.0 mi NE 8.1 mph - N/A   Clear
9:33 AM 39.2 °F 34.2 °F 30.2 °F 70% 30.09 in 10.0 mi NNE 6.9 mph - N/A   Clear
9:54 AM 39.2 °F 33.6 °F 30.2 °F 70% 30.08 in 10.0 mi NE 8.1 mph - N/A   Clear
10:14 AM 42.8 °F 38.0 °F 30.2 °F 61% 30.07 in 10.0 mi NE 8.1 mph - N/A   Clear
10:33 AM 41.0 °F 36.4 °F 30.2 °F 65% 30.06 in 10.0 mi NE 6.9 mph - N/A   Clear
10:54 AM 42.8 °F 38.0 °F 30.2 °F 61% 30.05 in 10.0 mi NE 8.1 mph - N/A   Clear
11:14 AM 41.0 °F 35.8 °F 30.2 °F 65% 30.04 in 10.0 mi NE 8.1 mph - N/A   Clear
11:33 AM 42.8 °F 37.0 °F 30.2 °F 61% 30.02 in 10.0 mi ENE 10.4 mph - N/A   Clear
11:54 AM 42.8 °F 38.6 °F 30.2 °F 61% 30.01 in 10.0 mi NE 6.9 mph - N/A   Clear
12:14 PM 41.0 °F 35.2 °F 32.0 °F 70% 29.99 in 10.0 mi ENE 9.2 mph - N/A   Clear
12:33 PM 42.8 °F 37.0 °F 30.2 °F 61% 29.98 in 10.0 mi ENE 10.4 mph - N/A   Clear
12:54 PM 41.0 °F 35.2 °F 30.2 °F 65% 29.98 in 10.0 mi NE 9.2 mph - N/A   Clear
1:13 PM 41.0 °F 37.1 °F 32.0 °F 70% 29.97 in 10.0 mi NE 5.8 mph - N/A   Clear
1:33 PM 41.0 °F 36.4 °F 32.0 °F 70% 29.98 in 10.0 mi NE 6.9 mph - N/A   Clear
1:54 PM 41.0 °F 36.4 °F 32.0 °F 70% 29.97 in 10.0 mi North 6.9 mph - N/A   Clear
2:13 PM 41.0 °F 35.2 °F 32.0 °F 70% 29.96 in 10.0 mi NE 9.2 mph - N/A Rain Light Rain
2:33 PM 39.2 °F 35.9 °F 33.8 °F 81% 29.96 in 10.0 mi ENE 4.6 mph - N/A   Drizzle
3:33 PM 39.2 °F 33.6 °F 33.8 °F 81% 29.92 in 10.0 mi NE 8.1 mph - N/A   Scattered Clouds
3:53 PM 39.2 °F 34.2 °F 33.8 °F 81% 29.90 in 10.0 mi NE 6.9 mph - N/A   Clear
4:13 PM 39.2 °F 35.9 °F 33.8 °F 81% 29.90 in 10.0 mi NE 4.6 mph - N/A   Clear
4:34 PM 39.2 °F 35.0 °F 33.8 °F 81% 29.88 in 10.0 mi NE 5.8 mph - N/A   Clear
4:53 PM 39.2 °F 35.9 °F 33.8 °F 81% 29.87 in 10.0 mi NE 4.6 mph - N/A   Clear
5:13 PM 39.2 °F 34.2 °F 33.8 °F 81% 29.86 in 10.0 mi NE 6.9 mph - N/A   Clear
5:34 PM 39.2 °F 34.2 °F 33.8 °F 81% 29.84 in 10.0 mi NE 6.9 mph - N/A   Clear
5:53 PM 39.2 °F 33.0 °F 33.8 °F 81% 29.84 in 10.0 mi NE 9.2 mph - N/A   Clear
6:33 PM 39.2 °F 32.0 °F 33.8 °F 81% 29.81 in 10.0 mi NE 11.5 mph - N/A   Clear
7:14 PM 39.2 °F 32.5 °F 33.8 °F 81% 29.79 in 10.0 mi NNE 10.4 mph - N/A   Clear
7:33 PM 39.2 °F 31.6 °F 33.8 °F 81% 29.78 in 10.0 mi NE 12.7 mph - N/A   Clear
7:54 PM 39.2 °F 31.6 °F 33.8 °F 81% 29.77 in 10.0 mi NE 12.7 mph - N/A   Clear
8:13 PM 39.2 °F 30.8 °F 33.8 °F 81% 29.76 in 10.0 mi NE 15.0 mph - N/A   Clear
8:34 PM 39.2 °F 29.8 °F 33.8 °F 81% 29.76 in 10.0 mi NE 18.4 mph - N/A   Clear
8:53 PM 39.2 °F 30.8 °F 33.8 °F 81% 29.76 in 10.0 mi NE 15.0 mph - N/A   Clear
9:14 PM 39.2 °F 33.6 °F 33.8 °F 81% 29.76 in 10.0 mi NE 8.1 mph - N/A   Scattered Clouds
9:33 PM 39.2 °F 33.0 °F 33.8 °F 81% 29.76 in 10.0 mi ENE 9.2 mph - N/A   Scattered Clouds
9:54 PM 37.4 °F 30.8 °F 33.8 °F 87% 29.75 in 10.0 mi ENE 9.2 mph - N/A   Mostly Cloudy
10:13 PM 37.4 °F 31.4 °F 33.8 °F 87% 29.74 in 10.0 mi NE 8.1 mph - N/A   Mostly Cloudy
10:33 PM 37.4 °F 31.4 °F 33.8 °F 87% 29.74 in 10.0 mi NE 8.1 mph - N/A   Scattered Clouds
10:53 PM 37.4 °F 32.8 °F 33.8 °F 87% 29.73 in 10.0 mi ENE 5.8 mph - N/A   Clear
11:13 PM 37.4 °F 32.8 °F 33.8 °F 87% 29.72 in 10.0 mi NE 5.8 mph - N/A   Clear
11:34 PM 37.4 °F 32.8 °F 33.8 °F 87% 29.71 in 10.0 mi NE 5.8 mph - N/A   Clear
11:54 PM 37.4 °F 32.8 °F 33.8 °F 87% 29.70 in 10.0 mi ENE 5.8 mph - N/A   Clear